• In Russia
  • List of Countries
  • For 7 days
  • Water Temperature
  • Satellite Maps
  • Weather Map
  • Weather Widgets
  • user-avatar
    Login

    Hourly Weather Durres

    Today, 22 February, Wednesday

    Time Temperature Precipitation Wind Pressure Humidity
    00:00 +5°C° 0 mm 2 mps 763 mmHg 71%
    01:00 +6°C° 0 mm 1 mps 763 mmHg 70%
    02:00 +6°C° 0 mm 1 mps 763 mmHg 71%
    03:00 +6°C° 0 mm 1 mps 763 mmHg 72%
    04:00 +6°C° 0 mm 1 mps 763 mmHg 73%
    05:00 +6°C° 0 mm 1 mps 763 mmHg 73%
    06:00 +6°C° 0 mm 1 mps 763 mmHg 74%
    07:00 +7°C° 0 mm 1 mps 763 mmHg 74%
    08:00 +9°C° 0 mm 1 mps 764 mmHg 68%
    09:00 +11°C° 0 mm 1 mps 764 mmHg 63%
    10:00 +14°C° 0 mm 1 mps 764 mmHg 57%
    11:00 +14°C° 0 mm 1 mps 764 mmHg 57%
    12:00 +15°C° 0 mm 1 mps 763 mmHg 57%
    13:00 +16°C° 0 mm 1 mps 763 mmHg 57%
    14:00 +15°C° 0 mm 1 mps 763 mmHg 61%
    15:00 +15°C° 0 mm 1 mps 763 mmHg 65%
    16:00 +14°C° 0 mm 1 mps 763 mmHg 69%
    17:00 +13°C° 0 mm 1 mps 763 mmHg 76%
    18:00 +11°C° 0 mm 1 mps 763 mmHg 83%
    19:00 +9°C° 0 mm 1 mps 763 mmHg 89%
    20:00 +9°C° 0 mm 1 mps 763 mmHg 89%
    21:00 +7°C° 0 mm 2 mps 763 mmHg 89%
    22:00 +7°C° 0 mm 2 mps 764 mmHg 88%
    23:00 +7°C° 0 mm 2 mps 764 mmHg 88%

    Tomorrow, 23 February, Thursday

    Time Temperature Precipitation Wind Pressure Humidity
    00:00 +7°C° 0 mm 2 mps 764 mmHg 88%
    01:00 +7°C° 0 mm 3 mps 764 mmHg 88%
    02:00 +7°C° 0 mm 3 mps 764 mmHg 88%
    03:00 +5°C° 0 mm 3 mps 763 mmHg 87%
    04:00 +5°C° 0 mm 3 mps 763 mmHg 87%
    05:00 +5°C° 0 mm 3 mps 763 mmHg 85%
    06:00 +7°C° 0 mm 3 mps 763 mmHg 84%
    07:00 +7°C° 0 mm 3 mps 764 mmHg 82%
    08:00 +9°C° 0 mm 3 mps 763 mmHg 73%
    09:00 +12°C° 0 mm 3 mps 763 mmHg 64%
    10:00 +14°C° 0 mm 3 mps 763 mmHg 55%
    11:00 +15°C° 0 mm 4 mps 763 mmHg 54%
    12:00 +15°C° 0 mm 4 mps 763 mmHg 53%
    13:00 +17°C° 0 mm 4 mps 763 mmHg 52%
    14:00 +15°C° 0 mm 4 mps 762 mmHg 56%
    15:00 +15°C° 0 mm 4 mps 762 mmHg 60%
    16:00 +14°C° 0 mm 5 mps 762 mmHg 64%
    17:00 +13°C° 0 mm 5 mps 762 mmHg 71%
    18:00 +10°C° 0 mm 5 mps 762 mmHg 78%
    19:00 +8°C° 0 mm 5 mps 762 mmHg 86%
    20:00 +8°C° 0 mm 5 mps 762 mmHg 87%
    21:00 +7°C° 0 mm 5 mps 763 mmHg 87%
    22:00 +7°C° 0 mm 5 mps 763 mmHg 88%
    23:00 +7°C° 0 mm 5 mps 763 mmHg 89%

    Day after tomorrow, 24 February, Friday

    Time Temperature Precipitation Wind Pressure Humidity
    00:00 +7°C° 0 mm 5 mps 763 mmHg 90%
    01:00 +7°C° 0 mm 6 mps 763 mmHg 90%
    02:00 +7°C° 0 mm 6 mps 762 mmHg 89%
    03:00 +7°C° 0 mm 6 mps 762 mmHg 89%
    04:00 +7°C° 0 mm 6 mps 762 mmHg 88%
    05:00 +7°C° 0 mm 6 mps 762 mmHg 86%
    06:00 +7°C° 0 mm 6 mps 761 mmHg 85%
    07:00 +7°C° 0 mm 6 mps 761 mmHg 83%
    08:00 +10°C° 0 mm 6 mps 761 mmHg 77%
    09:00 +12°C° 0 mm 7 mps 761 mmHg 70%
    10:00 +15°C° 0 mm 7 mps 761 mmHg 64%
    11:00 +16°C° 0 mm 7 mps 761 mmHg 61%
    12:00 +17°C° 0 mm 8 mps 760 mmHg 58%
    13:00 +17°C° 0 mm 8 mps 760 mmHg 56%
    14:00 +17°C° 0 mm 9 mps 759 mmHg 59%
    15:00 +17°C° 0 mm 9 mps 759 mmHg 63%
    16:00 +17°C° 0 mm 9 mps 759 mmHg 66%
    17:00 +15°C° 0.1 mm 9 mps 759 mmHg 71%
    18:00 +13°C° 0.1 mm 9 mps 759 mmHg 76%
    19:00 +11°C° 0.1 mm 10 mps 759 mmHg 81%
    20:00 +11°C° 0.2 mm 9 mps 759 mmHg 80%
    21:00 +11°C° 0.2 mm 9 mps 758 mmHg 79%
    22:00 +11°C° 0.2 mm 9 mps 758 mmHg 78%
    23:00 +11°C° 0.8 mm 10 mps 758 mmHg 78%

    25 February, Saturday

    Time Temperature Precipitation Wind Pressure Humidity
    00:00 +11°C° 0.8 mm 10 mps 758 mmHg 78%
    01:00 +11°C° 0.8 mm 11 mps 757 mmHg 78%
    02:00 +11°C° 0.5 mm 10 mps 757 mmHg 78%
    03:00 +11°C° 0.5 mm 10 mps 756 mmHg 78%
    04:00 +11°C° 0.5 mm 9 mps 756 mmHg 78%
    05:00 +11°C° 1.1 mm 9 mps 756 mmHg 80%
    06:00 +11°C° 1.1 mm 9 mps 756 mmHg 81%
    07:00 +11°C° 1.1 mm 9 mps 757 mmHg 83%
    08:00 +12°C° 0.9 mm 8 mps 757 mmHg 82%
    09:00 +12°C° 0.9 mm 7 mps 757 mmHg 82%
    10:00 +14°C° 0.9 mm 6 mps 757 mmHg 81%
    11:00 +15°C° 1.2 mm 6 mps 758 mmHg 78%
    12:00 +15°C° 1.2 mm 6 mps 758 mmHg 75%
    13:00 +16°C° 1.2 mm 5 mps 758 mmHg 73%
    14:00 +15°C° 2.2 mm 5 mps 758 mmHg 76%
    15:00 +15°C° 2.2 mm 6 mps 758 mmHg 79%
    16:00 +14°C° 2.2 mm 6 mps 759 mmHg 82%
    17:00 +13°C° 1.5 mm 6 mps 759 mmHg 84%
    18:00 +13°C° 1.5 mm 6 mps 760 mmHg 86%
    19:00 +11°C° 1.5 mm 6 mps 761 mmHg 88%
    20:00 +10°C° 1 mm 6 mps 761 mmHg 88%
    21:00 +10°C° 1 mm 6 mps 762 mmHg 87%
    22:00 +10°C° 1 mm 6 mps 762 mmHg 87%
    23:00 +9°C° 1 mm 6 mps 762 mmHg 86%

    26 February, Sunday

    Time Temperature Precipitation Wind Pressure Humidity
    00:00 +9°C° 1 mm 6 mps 763 mmHg 86%
    01:00 +9°C° 1 mm 6 mps 763 mmHg 86%
    02:00 +9°C° 0.5 mm 5 mps 763 mmHg 86%
    03:00 +8°C° 0.5 mm 5 mps 763 mmHg 85%
    04:00 +8°C° 0.5 mm 5 mps 763 mmHg 85%
    05:00 +8°C° 0.2 mm 4 mps 763 mmHg 85%
    06:00 +8°C° 0.2 mm 4 mps 763 mmHg 84%
    07:00 +8°C° 0.2 mm 4 mps 763 mmHg 84%
    08:00 +11°C° 0.1 mm 3 mps 764 mmHg 79%
    09:00 +13°C° 0.1 mm 3 mps 764 mmHg 74%
    10:00 +16°C° 0.1 mm 3 mps 764 mmHg 69%
    11:00 +17°C° 0.1 mm 3 mps 764 mmHg 66%
    12:00 +18°C° 0.1 mm 2 mps 763 mmHg 63%
    13:00 +19°C° 0.1 mm 2 mps 763 mmHg 60%
    14:00 +19°C° 0 mm 3 mps 763 mmHg 63%
    15:00 +18°C° 0 mm 3 mps 763 mmHg 67%
    16:00 +17°C° 0 mm 3 mps 762 mmHg 71%
    17:00 +16°C° 0 mm 3 mps 763 mmHg 76%
    18:00 +13°C° 0 mm 3 mps 763 mmHg 82%
    19:00 +12°C° 0 mm 2 mps 763 mmHg 88%
    20:00 +12°C° 0 mm 2 mps 763 mmHg 88%
    21:00 +12°C° 0 mm 2 mps 763 mmHg 89%
    22:00 +12°C° 0 mm 2 mps 763 mmHg 89%
    23:00 +12°C° 0 mm 2 mps 763 mmHg 88%

    27 February, Monday

    Time Temperature Precipitation Wind Pressure Humidity
    00:00 +10°C° 0 mm 2 mps 763 mmHg 88%
    01:00 +10°C° 0 mm 2 mps 763 mmHg 88%
    02:00 +10°C° 0 mm 2 mps 763 mmHg 88%
    03:00 +10°C° 0 mm 2 mps 763 mmHg 88%
    04:00 +9°C° 0 mm 2 mps 763 mmHg 88%
    05:00 +10°C° 0 mm 2 mps 763 mmHg 86%
    06:00 +10°C° 0 mm 2 mps 763 mmHg 85%
    07:00 +10°C° 0 mm 2 mps 763 mmHg 83%
    08:00 +13°C° 0 mm 2 mps 763 mmHg 76%
    09:00 +15°C° 0 mm 1 mps 763 mmHg 70%
    10:00 +18°C° 0 mm 1 mps 764 mmHg 63%
    11:00 +18°C° 0 mm 2 mps 763 mmHg 62%
    12:00 +18°C° 0 mm 2 mps 763 mmHg 61%
    13:00 +19°C° 0 mm 3 mps 762 mmHg 60%
    14:00 +18°C° 0 mm 3 mps 762 mmHg 64%
    15:00 +18°C° 0 mm 3 mps 762 mmHg 68%
    16:00 +17°C° 0 mm 3 mps 762 mmHg 71%
    17:00 +16°C° 0 mm 3 mps 762 mmHg 78%
    18:00 +14°C° 0 mm 2 mps 762 mmHg 85%
    19:00 +12°C° 0 mm 2 mps 763 mmHg 92%
    20:00 +12°C° 0 mm 2 mps 763 mmHg 92%
    21:00 +11°C° 0 mm 1 mps 763 mmHg 92%
    22:00 +11°C° 0 mm 1 mps 763 mmHg 92%
    23:00 +11°C° 0 mm 1 mps 763 mmHg 92%
    Show more